Home > Weather > Nea Smyrni > Past weeks

Flag for Greece Past Weather in Nea Smyrni, Greece — Yesterday and Last 2 Weeks

Now
84 °F

Passing clouds.


Feels Like: 84 °F
Forecast: 75 / 89 °F
Wind: 17 mph from Northeast

Location: Eleftherios Venizelos International Airport

Current Time: Jun 30, 2016 at 1:34:53 PM

Latest Report: Jun 30, 2016 at 12:50 PM


Visibility: N/A

Pressure: 30.01 "Hg

Humidity: 45%

Dew Point: 61 °F

Location of Nea SmyrniLocation

Past Weather in Nea Smyrni — Graph

°F

Nea Smyrni Temperature Yesterday

Maximum temperature yesterday: 88 °F (at 2:20 PM)
Minimum temperature yesterday: 66 °F (at 2:20 AM)
Average temperature yesterday: 76 °F

High & Low Weather Summary for the Past Weeks

 TemperatureHumidityPressure
High100 °F (Jun 18, 2:50 PM)88% (Jun 28, 8:20 PM)30.07 "Hg (Jun 28, 8:20 PM)
Low64 °F (Jun 17, 5:50 AM)17% (Jun 17, 3:20 PM)29.71 "Hg (Jun 25, 6:50 PM)
Average82 °F48%29.89 "Hg
* Reported Jun 15 12:20 PM — Jun 30 12:20 PM, Nea Smyrni, Weather by CustomWeather, © 2016

Note: Actual official high and low records may vary slightly from our data, if they occured in-between our weather recording intervals... More about our weather records

Advertising

Nea Smyrni Weather History for the Previous 24 Hours

Scroll right to see more
 ConditionsComfort  
Time TempWeatherWind HumidityBarometerVisibility
12:20 PM
Thu, Jun 30
84 °FPassing clouds.17 mph45%30.01 "HgN/A
11:50 AM84 °FPassing clouds.15 mph43%30.01 "HgN/A
11:20 AM84 °FPassing clouds.13 mph40%30.01 "HgN/A
10:50 AM84 °FPassing clouds.12 mph40%29.98 "HgN/A
10:20 AM82 °FPassing clouds.9 mph42%29.98 "HgN/A
9:50 AM82 °FPassing clouds.6 mph42%29.98 "HgN/A
9:20 AM82 °FPassing clouds.6 mph42%29.98 "HgN/A
8:50 AM81 °FSunny.6 mph42%29.98 "Hg10 mi
8:20 AM79 °FSunny.3 mph48%29.98 "Hg10 mi
7:50 AM75 °FSunny.No wind61%29.98 "Hg10 mi
7:20 AM73 °FSunny.2 mph65%29.98 "Hg10 mi
6:50 AM70 °FClear.2 mph83%29.95 "Hg10 mi
6:20 AM66 °FClear.No wind88%29.95 "Hg10 mi
5:50 AM66 °FClear.2 mph88%29.95 "Hg10 mi
5:20 AM66 °FClear.1 mph88%29.95 "Hg10 mi
4:50 AM66 °FClear.3 mph88%29.95 "Hg10 mi
4:20 AM66 °FClear.3 mph83%29.95 "Hg10 mi
3:50 AM68 °FPassing clouds.No wind83%29.95 "HgN/A
3:20 AM70 °FPassing clouds.2 mph78%29.95 "HgN/A
2:50 AM68 °FPassing clouds.1 mph88%29.95 "HgN/A
2:20 AM68 °FPassing clouds.5 mph88%29.95 "HgN/A
1:50 AM70 °FPassing clouds.1 mph83%29.95 "HgN/A
1:20 AM70 °FPassing clouds.5 mph83%29.95 "HgN/A
12:50 AM68 °FPassing clouds.5 mph88%29.92 "HgN/A
12:20 AM70 °FPassing clouds.1 mph83%29.92 "HgN/A
11:50 PM
Wed, Jun 29
70 °FPassing clouds.2 mph83%29.95 "HgN/A
11:20 PM70 °FClear.3 mph83%29.92 "Hg10 mi
10:50 PM72 °FPassing clouds.2 mph78%29.92 "HgN/A
10:20 PM73 °FPassing clouds.2 mph69%29.92 "HgN/A
9:50 PM73 °FPassing clouds.7 mph69%29.92 "HgN/A
9:20 PM75 °FPassing clouds.7 mph65%29.92 "HgN/A
8:50 PM75 °FPassing clouds.2 mph65%29.89 "HgN/A
8:20 PM77 °FScattered clouds.8 mph61%29.89 "HgN/A
7:50 PM77 °FScattered clouds.12 mph57%29.89 "HgN/A
7:20 PM81 °FScattered clouds.8 mph54%29.89 "HgN/A
6:50 PM81 °FScattered clouds.10 mph51%29.86 "HgN/A
6:20 PM82 °FScattered clouds.9 mph45%29.86 "HgN/A
5:50 PM82 °FScattered clouds.10 mph48%29.86 "HgN/A
5:20 PM82 °FScattered clouds.9 mph51%29.86 "HgN/A
4:50 PM82 °FScattered clouds.10 mph48%29.86 "HgN/A
4:20 PM84 °FScattered clouds.10 mph40%29.86 "HgN/A
3:50 PM86 °FScattered clouds.13 mph43%29.86 "HgN/A
3:20 PM84 °FScattered clouds.13 mph45%29.86 "HgN/A
2:50 PM84 °FScattered clouds.12 mph43%29.86 "HgN/A
2:20 PM88 °FScattered clouds.15 mph35%29.86 "HgN/A
1:50 PM84 °FScattered clouds.14 mph40%29.86 "HgN/A
1:20 PM84 °FScattered clouds.14 mph40%29.86 "HgN/A
Weather by CustomWeather, © 2016

See weather overviewHow to use our weather pages